"Pseudo-MPEC" for P22papG

Created 2026 Aug 14 1:35:26 UT using Find_Orb

Click here for an explanation of pseudo-MPECs

 
 Astrometry: 
     P22papG*0C2026 08 11.37169321 53 57.682+13 51 20.03   ~8BB5 20.96wXNEOCPF52
     P22papG 0C2026 08 11.39354221 53 56.572+13 52 37.49   ~8BB5 20.85wXNEOCPF52
     P22papG 0C2026 08 11.40455121 53 56.008+13 53 16.41   ~8BB5 20.90wXNEOCPF52
     P22papG 0C2026 08 11.46088421 53 53.058+13 56 35.57   ~8BKZ 20.61GVNEOCPF52
     P22papG 0C2026 08 11.46151721 53 53.026+13 56 37.76   ~8BKZ 20.37GVNEOCPF52
     P22papG 1C2026 08 11.86723021 53 37.237+14 20 25.70   ~8BL5 21.3 GXNEOCP033
     P22papG 1C2026 08 11.86834021 53 37.176+14 20 29.70   ~8BL5 20.1 GXNEOCP033
     P22papG 1C2026 08 11.86945021 53 37.108+14 20 33.60   ~8BL5 20.4 GXNEOCP033
     P22papG 1C2026 08 11.87058021 53 37.057+14 20 37.70   ~8BL5 20.3 GXNEOCP033
     P22papG KB2026 08 11.91392 21 53 34.72 +14 23 16.3    ~8C0K 20.2 GXNEOCPL04
     P22papG KB2026 08 11.94093 21 53 33.38 +14 24 52.9    ~8C0K 20.4 GXNEOCPL04
     P22papG KB2026 08 11.95177621 53 33.07 +14 25 33.0    ~8BNK 20.4 GVNEOCPL01
     P22papG KB2026 08 11.95431521 53 32.95 +14 25 41.7    ~8BNK 20.2 GVNEOCPL01
     P22papG IB2026 08 11.95685321 53 32.79 +14 25 50.5    ~8BNK 17.5 GVNEOCPL01
     P22papG KB2026 08 11.98169221 53 31.89 +14 27 20.7    ~8C05 20.4 GXNEOCPI93
     P22papG KB2026 08 11.98666721 53 31.62 +14 27 38.5    ~8C05 20.4 GXNEOCPI93
     P22papG KB2026 08 11.99142421 53 31.35 +14 27 55.8    ~8C05 20.6 GXNEOCPI93
     P22papG KC2026 08 12.17497621 53 24.07 +14 39 01.9    ~8C4ox21.3 GVNEOCPH21
     P22papG KC2026 08 12.17777421 53 23.93 +14 39 12.3    ~8C4ox21.2 GVNEOCPH21
     P22papG KC2026 08 12.18057221 53 23.80 +14 39 22.2    ~8C4ox21.1 GVNEOCPH21
     P22papG KB2026 08 12.86680 21 52 53.50 +15 21 12.6    ~8CMo 20.2 GXNEOCPL04
     P22papG KB2026 08 12.92396 21 52 50.41 +15 24 45.6    ~8CMo 20.0 GXNEOCPL04
     P22papG 1C2026 08 12.92609021 52 50.534+15 24 51.50   ~8CNZ 20.4 GXNEOCP033
     P22papG 1C2026 08 12.92692021 52 50.488+15 24 54.70   ~8CNZ 20.7 GXNEOCP033
     P22papG 1C2026 08 12.92776021 52 50.466+15 24 57.60   ~8CNZ 20.3 GXNEOCP033
     P22papG 1C2026 08 12.92858021 52 50.405+15 25 00.80   ~8CNZ 20.3 GXNEOCP033
     P22papG 1C2026 08 13.96070021 52 01.355+16 30 09.00   ~8DNK 20.0 GXNEOCP033
     P22papG 1C2026 08 13.96147021 52 01.304+16 30 12.10   ~8DNK 20.0 GXNEOCP033
     P22papG 1C2026 08 13.96224021 52 01.265+16 30 14.90   ~8DNK 19.9 GXNEOCP033
     P22papG 1C2026 08 13.96300021 52 01.214+16 30 17.70   ~8DNK 20.3 GXNEOCP033

Station data:
(033) Karl Schwarzschild Observatory, Tautenburg  (N50.980139 E11.711240)
   Germany.  Observer B. Stecklum. 1.34-m f/3 Schmidt + CCD.
(F52) Pan-STARRS 2, Haleakala  (N20.707382 W156.255910)  US/Hawaii.
   Observers J. Herman, T. Lowe, P. Minguez, A. Schultz, I. Smith. Measurers
   K. Chambers, T. de Boer, J. Fairlamb, H. Gao, M. Huber, C.-C. Lin, E.
   Magnier, Y. Ramanjooloo, R. Wainscoat, R. Weryk. 1.8-m Ritchey-Chrétien +
   CCD.
(H21) Astronomical Research Observatory, Westfield  (N39.483054 W87.968270)
   US/Illinois.  Observer R. Holmes. Measurers S. Foglia, L. Buzzi, T.
   Linder, R. Holmes. 0.40-m f/5.32 astrograph + CCD.
(I93) St Pardon de Conques  (N44.558670 W0.202960)  France.  Observers F.
   Losse, W. D'Anna. Measurer F. Losse. 0.40-m f/3.7 reflector + CCD.
(L01) Višnjan Observatory, Tičan  (N45.290897 E13.749300)  Croatia.
   Observers K. Korlević, L. Poropat. Measurer K. Korlevic. 1.0-m f/2.9
   reflector + CCD.
(L04) ROASTERR-1 Observatory, Cluj-Napoca  (N46.820952 E23.596400)  Romania.
   Observer L. Hudin. 0.1-m f/9 refractor + CCD.

Orbital elements:  P22papG
   Perihelion 2026 Oct 21.490568 +/- 0.137 TT = 11:46:25.0 (JD 2461334.990568)
Epoch 2026 Aug 13.0 TT = JDT 2461265.5   Earth MOID: 0.0820      AutoNEOCP
M 336.615273098 +/- 0.6             (J2000 ecliptic)
n   0.336516562 +/- 0.00831         Peri.  112.450450 +/- 0.26
a   2.047065568 +/- 0.0333          Node   287.195343 +/- 0.20
e   0.54683442 +/- 0.00755          Incl.    9.806225 +/- 0.12
P   2.92885                H 21.57  G  0.15   U  9.5
q 0.927659644 +/- 0.000585    Q 3.166471492 +/- 0.0669
27 of 30 observations 2026 Aug. 11-13; mean residual 0".16
Residuals in arcseconds: 
260811 F52  .05-  .02+    260811 L04  .28+  .24-    260812 L04  .15+  .05-    
260811 F52  .01-  .07+    260811 L01  .21+  .30+    260812 L04  .04-  .09-    
260811 F52  .04+  .01+    260811 L01  .36+  .14-    260812 033  .11-  .03+    
260811 F52  .05-  .05-    260811 L01  .08-  .47-    260812 033  .14-  .14+    
260811 F52  .03-  .10-    260811 I93  .24+  .18+    260812 033  .19+  .10-    
260811 033  .23+  .09+    260811 I93  .03+  .04+    260812 033  .06-  .04+    
260811 033  .11+  .09+    260811 I93  .34-  .19+    260813 033  .01+  .02+    
260811 033  .11-  .01-    260812 H21( .77-  2.1+)   260813 033  .09-  .15+    
260811 033  .06-  .02+    260812 H21( .71-  2.3+)   260813 033  .01-  .02-    
260811 L04  .21-  .31+    260812 H21( .50-  2.1+)   260813 033  .11-  .16-    

Ephemerides (geocentric):
Date (UTC) HH   RA             Dec           delta  r     elong  mag " sig PA
---- --------  ------------   ------------  ------ ------ -----  --- --------
2026 08 14 02  21 51 55.115   +16 38 20.43  .27903 1.2595 148.5 20.4 .174 151
2026 08 14 03  21 51 53.051   +16 41 01.87  .27874 1.2592 148.5 20.4 .169 149
2026 08 14 04  21 51 50.980   +16 43 43.54  .27846 1.2588 148.5 20.4 .165 147
2026 08 14 05  21 51 48.904   +16 46 25.45  .27817 1.2585 148.4 20.4 .160 144
2026 08 14 06  21 51 46.821   +16 49 07.59  .27789 1.2582 148.4 20.4 .156 141
2026 08 14 07  21 51 44.732   +16 51 49.97  .27761 1.2579 148.4 20.4 .151 139
2026 08 14 08  21 51 42.637   +16 54 32.59  .27732 1.2576 148.4 20.4 .147 135
2026 08 14 09  21 51 40.536   +16 57 15.44  .27704 1.2573 148.3 20.4 .144 132
2026 08 14 10  21 51 38.428   +16 59 58.54  .27676 1.2569 148.3 20.4 .140 128
2026 08 14 11  21 51 36.315   +17 02 41.87  .27648 1.2566 148.3 20.4 .138 124
2026 08 14 12  21 51 34.195   +17 05 25.44  .27619 1.2563 148.3 20.4 .135 120
2026 08 14 13  21 51 32.069   +17 08 09.24  .27591 1.2560 148.2 20.4 .134 116
2026 08 14 14  21 51 29.937   +17 10 53.29  .27563 1.2557 148.2 20.4 .133 111
2026 08 14 15  21 51 27.799   +17 13 37.58  .27535 1.2554 148.2 20.4 .133 106
2026 08 14 16  21 51 25.654   +17 16 22.10  .27507 1.2550 148.2 20.4 .135 102
2026 08 14 17  21 51 23.504   +17 19 06.87  .27479 1.2547 148.1 20.4 .137  97
2026 08 14 18  21 51 21.347   +17 21 51.88  .27451 1.2544 148.1 20.4 .140  92
2026 08 14 19  21 51 19.184   +17 24 37.12  .27423 1.2541 148.1 20.4 .144  87
2026 08 14 20  21 51 17.014   +17 27 22.61  .27395 1.2538 148.0 20.4 .149  83
2026 08 14 21  21 51 14.839   +17 30 08.34  .27367 1.2535 148.0 20.4 .155  78
2026 08 14 22  21 51 12.657   +17 32 54.31  .27340 1.2532 148.0 20.4 .162  74
2026 08 14 23  21 51 10.468   +17 35 40.53  .27312 1.2528 148.0 20.4 .170  71
2026 08 15 00  21 51 08.274   +17 38 26.98  .27284 1.2525 147.9 20.4 .179  67
2026 08 15 01  21 51 06.073   +17 41 13.68  .27256 1.2522 147.9 20.4 .188  64
2026 08 15 02  21 51 03.866   +17 44 00.63  .27229 1.2519 147.9 20.4 .198  61
2026 08 15 03  21 51 01.653   +17 46 47.81  .27201 1.2516 147.9 20.4 .209  58
2026 08 15 04  21 50 59.433   +17 49 35.24  .27173 1.2513 147.8 20.4 .221  56
2026 08 15 05  21 50 57.207   +17 52 22.91  .27146 1.2509 147.8 20.4 .233  53
2026 08 15 06  21 50 54.974   +17 55 10.83  .27118 1.2506 147.8 20.4 .246  51
2026 08 15 07  21 50 52.736   +17 57 59.00  .27090 1.2503 147.7 20.4 .259  49
2026 08 15 08  21 50 50.490   +18 00 47.40  .27063 1.2500 147.7 20.4 .273  47
2026 08 15 09  21 50 48.239   +18 03 36.06  .27035 1.2497 147.7 20.4 .287  46
2026 08 15 10  21 50 45.981   +18 06 24.96  .27008 1.2494 147.7 20.4 .302  44
2026 08 15 11  21 50 43.717   +18 09 14.10  .26980 1.2491 147.6 20.4 .317  43
2026 08 15 12  21 50 41.446   +18 12 03.50  .26953 1.2487 147.6 20.4 .333  42
2026 08 15 13  21 50 39.169   +18 14 53.14  .26926 1.2484 147.6 20.4 .349  40
2026 08 15 14  21 50 36.886   +18 17 43.02  .26898 1.2481 147.5 20.4 .365  39
2026 08 15 15  21 50 34.596   +18 20 33.16  .26871 1.2478 147.5 20.4 .382  38
2026 08 15 16  21 50 32.299   +18 23 23.54  .26844 1.2475 147.5 20.4 .399  37
2026 08 15 17  21 50 29.996   +18 26 14.17  .26816 1.2472 147.4 20.4 .417  36
2026 08 15 18  21 50 27.687   +18 29 05.05  .26789 1.2469 147.4 20.4 .435  35
2026 08 15 19  21 50 25.371   +18 31 56.18  .26762 1.2465 147.4 20.4 .453  34
2026 08 15 20  21 50 23.049   +18 34 47.56  .26735 1.2462 147.4 20.4 .472  34
2026 08 15 21  21 50 20.720   +18 37 39.18  .26708 1.2459 147.3 20.4 .491  33
2026 08 15 22  21 50 18.385   +18 40 31.06  .26681 1.2456 147.3 20.4 .510  32
2026 08 15 23  21 50 16.044   +18 43 23.19  .26654 1.2453 147.3 20.4 .530  32
2026 08 16 00  21 50 13.695   +18 46 15.57  .26627 1.2450 147.2 20.4 .550  31
2026 08 16 01  21 50 11.341   +18 49 08.19  .26600 1.2447 147.2 20.4 .570  30